Torna al catalogo

FENGYUN 1C DEB

AttivoPO
NORAD 33689·DEBRIS·🇨🇳 China

Lanciato May 10, 1999 da Taiyuan Satellite Launch Center

Loading…

Prossimi Passaggi (prossime 24 ore)

TLE

AggiornatoSource: Space-Track

Epoca: Sep 13, 2026, 09:30 UTC

1 33689U 99025DGA 26256.39639072  .00001857  00000-0  52020-3 0  9997
2 33689  99.5467 303.3956 0047658  68.9262 358.3669 14.46840511735002

Traccia FENGYUN 1C DEB in tempo reale con AllMySat

Download on the App Store